Location: Recife
(8.0585°S, 34.8848°W)
Time: 12:04:53
(UTC-03:00)

Vanguard 2 - Pass Details

Date: 15 April 2026
Orbit: 554 x 2894 km, 32.9° (Epoch: 7 May)

Event Time Altitude Azimuth Distance (km) Brightness Sun altitude
Rises 06:01:58 0° 236° (SW) 5,744 11.4 8.9°
Reaches altitude 10° 06:06:21 10° 235° (SW) 4,374 10.9 10.0°
Maximum altitude 06:17:23 83° 147° (SSE) 1,298 9.0 12.7°
Drops below altitude 10° 06:23:47 10° 59° (ENE) 2,630 12.0 14.2°
Sets 06:25:50 0° 58° (ENE) 3,369 12.3 14.7°
